[[{"header":{"parameterUnit":"m.s-1","parameterCategory":1,"la1":30.2991,"la2":30.254,"lo1":-89.0895,"lo2":-89.0444,"dy":0.0017,"dx":0.0017,"nx":28,"ny":28,"refTime":"2024-08-22T03:00:00:Z","depth":0,"parameterNumber":2,"parameterNumberName":"U-component_of_WINDS"},"data":[0,0,0,0,0,0,0,0,0,0,0,0,0,0,0,0,0,0,0,0,0,0,0,0,0,0,0,0,0,0,0,0,0,0,0,0,0,0,0,0,0,0,0,0,0,0,0,0,0,0,0,0,0,0,0,0,0,0,-4.3818,-4.3819,0,-4.3868,-4.3868,-4.3869,-4.3711,-4.3706,-4.3701,-4.3697,-4.3745,-4.3751,-4.3757,0,0,0,0,0,0,0,0,0,0,0,0,0,-4.3586,-4.3591,-4.3818,-4.3819,-4.3819,-4.3868,-4.3868,-4.3869,-4.3712,-4.3706,-4.37,-4.3695,-4.3744,-4.375,-4.3757,0,0,0,0,0,0,0,0,0,0,0,0,0,-4.3667,-4.3593,-4.3818,-4.3747,-4.3741,-4.3868,-4.3868,-4.3869,-4.3713,-4.3706,-4.3699,-4.3692,-4.3741,-4.375,-4.3758,-4.3955,0,0,-4.3785,-4.3788,0,0,0,0,0,0,0,0,-4.3662,-4.3675,-4.3757,-4.3752,-4.3745,-4.3776,-4.3804,-4.3898,-4.3715,-4.3724,-4.3697,-4.3688,-4.3761,-4.3768,-4.3793,-4.3958,-4.396,-4.3785,-4.3791,-4.3794,-4.3797,0,0,0,0,0,0,0,-4.3657,-4.3672,-4.3838,-4.3758,-4.3751,-4.3712,-4.3715,-4.3821,-4.3782,-4.3722,-4.3711,-4.3719,-4.3757,-4.3785,-4.3793,-4.396,-4.3785,-4.3793,-4.3798,-4.3802,-4.4292,-4.4299,0,0,0,0,0,0,-4.3661,-4.3669,-4.3836,-4.3839,-4.3685,-4.3722,-4.3726,-4.3773,-4.378,-4.3775,-4.3725,-4.3711,-4.3774,-4.3783,-4.3794,-4.4027,-4.3794,-4.3802,-4.3807,-4.4284,-4.4294,-4.4302,0,0,0,0,0,0,-4.3656,-4.3677,-4.3834,-4.3751,-4.3768,-4.3734,-4.3788,-4.3778,-4.3806,-4.3783,-4.3775,-4.3761,-4.3768,-4.3782,-4.3917,-4.4026,-4.3806,-4.3814,-4.4275,-4.4287,-4.4298,-4.4493,0,0,0,0,0,0,-4.365,-4.3676,-4.3751,-4.3754,-4.3773,-4.3957,-4.3795,-4.3784,-4.3822,-4.3804,-4.3814,-4.3809,-4.3764,-4.3905,-4.3926,-4.4034,-4.3821,-4.4265,-4.428,-4.4294,-4.4477,-4.451,-4.4539,0,0,0,0,0,-4.3643,-4.3803,-4.3756,-4.3777,-4.3866,-4.3964,-4.3975,-4.392,-4.3831,-4.3906,-4.3891,-4.3809,-4.4011,-4.392,-4.3942,-4.4055,-4.4258,-4.4276,-4.4293,-4.4463,-4.4504,-4.4538,0,0,0,0,0,0,-4.3812,-4.3802,-4.3749,-4.3916,-4.3942,-4.3937,-4.4029,-4.3964,-4.4016,-4.3997,-4.3926,-4.393,-4.4079,-4.408,-4.3979,-4.4247,-4.4119,-4.4142,-4.4241,-4.4279,-4.431,-4.4306,-4.3828,0,0,0,0,0,-4.387,-4.3951,-4.3937,-4.4085,-4.4101,-4.4064,-4.4104,-4.406,-4.4084,-4.4094,-4.4089,-4.4116,-4.4185,-4.4232,-4.4294,-4.4476,-4.4477,-4.4565,-4.4596,-4.4621,-4.4642,-4.474,-4.4779,-4.436,-4.436,-4.4359,0,0,-4.3988,-4.3992,-4.4047,-4.4119,-4.4135,-4.4221,-4.4074,-4.417,-4.4233,-4.4108,-4.4237,-4.4235,-4.4259,-4.4419,-4.449,-4.4425,-4.4758,-4.4644,-4.4664,-4.4671,-4.4762,-4.4802,-4.4837,-4.4372,-4.437,-4.4368,0,0,-4.4247,-4.4259,-4.4384,-4.4403,-4.4429,-4.4403,-4.4434,-4.444,-4.4434,-4.4562,-4.4471,-4.4544,-4.4665,-4.4687,-4.4714,-4.4985,-4.4912,-4.5007,-4.5169,-4.5265,-4.5298,-4.5327,-4.5425,-4.5461,-4.5028,-4.5028,-4.5029,0,-4.439,-4.4517,-4.4456,-4.456,-4.4595,-4.4488,-4.4615,-4.4636,-4.4681,-4.4707,-4.4635,-4.4786,-4.4794,-4.4959,-4.5026,-4.5051,-4.5084,-4.5006,-4.5299,-4.5327,-4.5353,-4.5446,-4.5483,-4.504,-4.5039,-4.5037,-4.5036,0,-4.4692,-4.4782,-4.488,-4.4928,-4.4974,-4.5089,-4.5046,-4.51,-4.5053,-4.5035,-4.5168,-4.5175,-4.5238,-4.5274,-4.5227,-4.5433,-4.5392,-4.5311,-4.518,-4.5406,-4.5492,-4.5527,-4.5057,-4.5052,-4.5049,-4.5046,0,0,-4.5058,-4.5074,-4.5111,-4.5132,-4.5154,-4.5222,-4.5333,-4.5396,-4.5444,-4.5479,-4.557,-4.5676,-4.5602,-4.5633,-4.5588,-4.5673,-4.589,-4.558,-4.558,-4.5639,-4.6118,-4.618,-4.6222,-4.5841,-4.5848,-4.5853,-4.6116,0,-4.5314,-4.5505,-4.5455,-4.5645,-4.5727,-4.5628,-4.5725,-4.5749,-4.5737,-4.5804,-4.5789,-4.5866,-4.5761,-4.578,-4.5859,-4.5847,-4.5985,-4.5827,-4.5926,-4.593,-4.5923,-4.6267,-4.6332,-4.658,-4.6149,-4.6155,-4.6159,0,-4.5638,-4.5688,-4.5887,-4.5898,-4.593,-4.6018,-4.6073,-4.6139,-4.6165,-4.615,-4.6187,-4.6126,-4.6235,-4.6106,-4.6256,-4.615,-4.6187,-4.6188,-4.6196,-4.6203,-4.6059,-4.6284,-4.6658,-4.6696,-4.6211,-4.6207,-4.6203,0,-4.5887,-4.6003,-4.6138,-4.6159,-4.6175,-4.6239,-4.6249,-4.6267,-4.6309,-4.6358,-4.6384,-4.6444,-4.6477,-4.6525,-4.6483,-4.6392,-4.6641,-4.6506,-4.6631,-4.6633,-4.6688,-4.6685,-4.7074,-4.6712,-4.6712,-4.6711,-4.671,0,-4.6178,-4.6303,-4.625,-4.6333,-4.6471,-4.6414,-4.6552,-4.655,-4.6568,-4.6649,-4.6566,-4.6644,-4.6583,-4.6655,-4.6623,-4.6753,-4.6768,-4.6759,-4.6749,-4.6767,-4.6769,-4.6791,-4.6773,-4.6721,-4.6719,-4.6717,-4.6715,0,-4.6478,-4.6447,-4.6588,-4.6592,-4.6597,-4.6699,-4.6702,-4.6779,-4.6761,-4.6865,-4.6886,-4.6858,-4.6939,-4.6902,-4.6986,-4.6964,-4.7133,-4.7099,-4.7125,-4.7116,-4.7243,-4.7233,-4.766,-4.7714,-4.7318,-4.7322,-4.7325,0,-4.6666,-4.6761,-4.6777,-4.6826,-4.6842,-4.6921,-4.6964,-4.6912,-4.696,-4.6999,-4.7072,-4.7146,-4.7203,-4.7337,-4.7324,-4.7389,-4.7357,-4.7502,-4.7366,-4.7382,-4.736,-4.7355,-4.7365,-4.753,-4.7534,-4.7538,-4.7541,0,-4.7004,-4.6985,-4.705,-4.7113,-4.7167,-4.7213,-4.7252,-4.7296,-4.7246,-4.7304,-4.7387,-4.7432,-4.752,-4.7595,-4.7652,-4.7661,-4.7594,-4.7585,-4.7617,-4.7636,-4.7648,-4.7645,-4.72,-4.7575,-4.7571,-4.7569,-4.7567,-4.7566,-4.7254,-4.7334,-4.7359,-4.7436,-4.746,-4.7499,-4.7573,-4.7565,-4.7634,-4.7702,-4.7667,-4.7765,-4.779,-4.786,-4.7879,-4.7954,-4.7896,-4.7943,-4.7955,-4.7968,-4.7985,-4.7636,-4.7964,-4.7963,-4.7962,-4.7961,-4.796,0,-4.7587,-4.7599,-4.7671,-4.7729,-4.7791,-4.7723,-4.7763,-4.7819,-4.7906,-4.7936,-4.7994,-4.8091,-4.8165,-4.8159,-4.8226,-4.8288,-4.8259,-4.8307,-4.8302,-4.8306,-4.8032,-4.7998,-4.833,-4.833,-4.833,-4.833,-4.833,-4.833,-4.7768,-4.7902,-4.7887,-4.8032,-4.8042,-4.8138,-4.8167,-4.8203,-4.8227,-4.8339,-4.84,-4.8397,-4.8413,-4.8481,-4.8546,-4.8542,-4.8571,-4.8632,-4.8617,-4.8361,-4.8325,-4.829,-4.8257,-4.8639,-4.8639,-4.8884,-4.8887,-4.8888]},{"header":{"parameterUnit":"m.s-1","parameterCategory":1,"la1":30.2991,"la2":30.254,"lo1":-89.0895,"lo2":-89.0444,"dy":0.0017,"dx":0.0017,"nx":28,"ny":28,"refTime":"2024-08-22T03:00:00:Z","depth":0,"parameterNumber":3,"parameterNumberName":"V-component_of_WINDS"},"data":[0,0,0,0,0,0,0,0,0,0,0,0,0,0,0,0,0,0,0,0,0,0,0,0,0,0,0,0,0,0,0,0,0,0,0,0,0,0,0,0,0,0,0,0,0,0,0,0,0,0,0,0,0,0,0,0,0,0,-0.5395,-0.5395,0,-0.5453,-0.5453,-0.5454,-0.5513,-0.5513,-0.5514,-0.5515,-0.5574,-0.5575,-0.5576,0,0,0,0,0,0,0,0,0,0,0,0,0,-0.5331,-0.5331,-0.5394,-0.5395,-0.5396,-0.5453,-0.5453,-0.5454,-0.5513,-0.5513,-0.5514,-0.5515,-0.5574,-0.5575,-0.5576,0,0,0,0,0,0,0,0,0,0,0,0,0,-0.537,-0.5332,-0.5394,-0.5432,-0.5436,-0.5453,-0.5454,-0.5454,-0.5512,-0.5514,-0.5515,-0.5516,-0.5573,-0.5575,-0.5576,-0.556,0,0,-0.558,-0.558,0,0,0,0,0,0,0,0,-0.5368,-0.5373,-0.5426,-0.5429,-0.5434,-0.5477,-0.5453,-0.549,-0.5512,-0.5483,-0.5515,-0.5516,-0.5541,-0.5545,-0.5553,-0.5563,-0.5565,-0.558,-0.5581,-0.5581,-0.5581,0,0,0,0,0,0,0,-0.5365,-0.5371,-0.5418,-0.5426,-0.5431,-0.5445,-0.5452,-0.546,-0.5505,-0.5486,-0.549,-0.5496,-0.5543,-0.5552,-0.5555,-0.5566,-0.558,-0.5581,-0.5582,-0.5582,-0.5563,-0.5562,0,0,0,0,0,0,-0.5357,-0.5368,-0.5416,-0.5419,-0.5403,-0.5445,-0.5453,-0.5462,-0.5505,-0.5512,-0.5495,-0.5499,-0.5549,-0.5553,-0.5557,-0.554,-0.5581,-0.5582,-0.5583,-0.5564,-0.5563,-0.5561,0,0,0,0,0,0,-0.5356,-0.5361,-0.5413,-0.5395,-0.5403,-0.5445,-0.5454,-0.5462,-0.5471,-0.5512,-0.552,-0.5496,-0.555,-0.5555,-0.5558,-0.5543,-0.5583,-0.5584,-0.5566,-0.5564,-0.5562,-0.5506,0,0,0,0,0,0,-0.5353,-0.536,-0.5355,-0.5394,-0.5403,-0.5414,-0.5453,-0.5463,-0.5473,-0.5478,-0.5515,-0.5522,-0.5551,-0.5556,-0.5559,-0.5545,-0.5585,-0.5567,-0.5565,-0.5562,-0.5509,-0.5502,-0.5496,0,0,0,0,0,-0.5351,-0.5338,-0.5355,-0.536,-0.5399,-0.5413,-0.5419,-0.5453,-0.5472,-0.5467,-0.5492,-0.5521,-0.5544,-0.5556,-0.556,-0.5546,-0.5568,-0.5565,-0.5563,-0.5512,-0.5504,-0.5497,0,0,0,0,0,0,-0.5297,-0.5344,-0.5363,-0.5363,-0.5383,-0.5423,-0.5419,-0.5443,-0.5459,-0.5464,-0.5505,-0.5513,-0.551,-0.5529,-0.5541,-0.5531,-0.556,-0.5558,-0.552,-0.5512,-0.5506,-0.5502,-0.5586,0,0,0,0,0,-0.5285,-0.5293,-0.5334,-0.5329,-0.5338,-0.5376,-0.5384,-0.5408,-0.5432,-0.5441,-0.5467,-0.5488,-0.55,-0.5507,-0.552,-0.5512,-0.5519,-0.5504,-0.5497,-0.5492,-0.549,-0.5484,-0.5477,-0.5552,-0.5552,-0.5552,0,0,-0.526,-0.5287,-0.529,-0.5319,-0.5338,-0.5345,-0.5384,-0.539,-0.5395,-0.5442,-0.5446,-0.5465,-0.5492,-0.5488,-0.5488,-0.5503,-0.547,-0.5488,-0.5483,-0.5484,-0.548,-0.5473,-0.5467,-0.555,-0.555,-0.5551,0,0,-0.5219,-0.524,-0.5238,-0.5255,-0.5283,-0.5308,-0.5307,-0.5342,-0.5357,-0.5361,-0.5396,-0.5402,-0.5422,-0.5438,-0.5449,-0.5409,-0.5435,-0.5412,-0.5379,-0.5373,-0.5367,-0.5362,-0.5346,-0.534,-0.541,-0.541,-0.541,0,-0.5185,-0.5197,-0.5233,-0.5237,-0.5247,-0.5289,-0.5285,-0.5301,-0.5331,-0.5337,-0.5354,-0.5377,-0.5398,-0.5398,-0.5388,-0.5396,-0.5394,-0.5409,-0.5365,-0.536,-0.5356,-0.5341,-0.5335,-0.5407,-0.5407,-0.5407,-0.5408,0,-0.5153,-0.5161,-0.5155,-0.5183,-0.5193,-0.5193,-0.5227,-0.5232,-0.5255,-0.5277,-0.5279,-0.5305,-0.5323,-0.5324,-0.5347,-0.5326,-0.5335,-0.5357,-0.5387,-0.5345,-0.5332,-0.5327,-0.5402,-0.5403,-0.5404,-0.5405,0,0,-0.5082,-0.5127,-0.5124,-0.5136,-0.5168,-0.5174,-0.5174,-0.5192,-0.5195,-0.5213,-0.5214,-0.5228,-0.5248,-0.526,-0.5284,-0.5279,-0.5243,-0.5302,-0.5303,-0.5289,-0.522,-0.5202,-0.5196,-0.526,-0.5259,-0.5259,-0.5217,0,-0.5046,-0.505,-0.508,-0.5075,-0.5082,-0.5119,-0.5119,-0.5138,-0.5157,-0.5165,-0.5187,-0.5195,-0.5222,-0.5229,-0.5225,-0.5248,-0.523,-0.5252,-0.526,-0.526,-0.5252,-0.5189,-0.5172,-0.5132,-0.5213,-0.5212,-0.5211,0,-0.5005,-0.502,-0.5015,-0.5044,-0.5048,-0.5047,-0.5064,-0.5071,-0.5091,-0.5106,-0.5118,-0.5144,-0.5145,-0.5171,-0.5172,-0.5186,-0.5191,-0.5202,-0.5201,-0.5204,-0.5233,-0.5189,-0.512,-0.5114,-0.5204,-0.5204,-0.5205,0,-0.4952,-0.4971,-0.497,-0.4979,-0.5013,-0.5011,-0.5025,-0.5048,-0.5055,-0.5068,-0.5073,-0.5087,-0.5094,-0.5103,-0.5132,-0.5149,-0.5128,-0.5158,-0.5139,-0.5139,-0.5134,-0.5134,-0.5064,-0.5137,-0.5137,-0.5137,-0.5138,0,-0.4909,-0.4904,-0.4946,-0.4946,-0.494,-0.4974,-0.4968,-0.4985,-0.5004,-0.5006,-0.5039,-0.504,-0.5078,-0.5082,-0.5105,-0.51,-0.5104,-0.5115,-0.5121,-0.5112,-0.511,-0.5116,-0.5119,-0.5136,-0.5136,-0.5137,-0.5137,0,-0.485,-0.4878,-0.4879,-0.491,-0.4918,-0.4912,-0.4939,-0.4938,-0.4959,-0.4961,-0.4963,-0.4995,-0.5002,-0.5031,-0.5046,-0.506,-0.5048,-0.506,-0.5041,-0.5045,-0.5024,-0.5026,-0.4956,-0.4948,-0.5026,-0.5025,-0.5024,0,-0.4821,-0.4818,-0.4848,-0.4851,-0.4863,-0.4869,-0.4876,-0.4908,-0.4913,-0.4934,-0.4931,-0.494,-0.495,-0.4959,-0.4983,-0.4993,-0.5005,-0.498,-0.5007,-0.4997,-0.5004,-0.5003,-0.5002,-0.4974,-0.4973,-0.4972,-0.4972,0,-0.4765,-0.4778,-0.4787,-0.4799,-0.4806,-0.4818,-0.4831,-0.4832,-0.4867,-0.4871,-0.4878,-0.4885,-0.4898,-0.4907,-0.492,-0.4934,-0.4958,-0.4962,-0.4958,-0.495,-0.4938,-0.4943,-0.5025,-0.4964,-0.4965,-0.4966,-0.4966,-0.4966,-0.472,-0.4718,-0.4738,-0.4745,-0.4758,-0.4769,-0.4769,-0.4789,-0.4795,-0.4808,-0.4826,-0.483,-0.4848,-0.4868,-0.4879,-0.4882,-0.4896,-0.4891,-0.4889,-0.4887,-0.4882,-0.4937,-0.4885,-0.4885,-0.4885,-0.4885,-0.4886,0,-0.4666,-0.4679,-0.4686,-0.4702,-0.4707,-0.4729,-0.4743,-0.4746,-0.4749,-0.4764,-0.4771,-0.4778,-0.4785,-0.4808,-0.4817,-0.4815,-0.4826,-0.4816,-0.4816,-0.4819,-0.487,-0.4872,-0.4806,-0.4806,-0.4806,-0.4806,-0.4807,-0.4807,-0.4638,-0.4635,-0.4649,-0.4652,-0.4666,-0.467,-0.4676,-0.4685,-0.4696,-0.4702,-0.4708,-0.4722,-0.4739,-0.4749,-0.4756,-0.4762,-0.4764,-0.475,-0.476,-0.4808,-0.4815,-0.4823,-0.4825,-0.475,-0.475,-0.4709,-0.4708,-0.4708]}]]